This is the latest recevied weather packets stored in our database for station/object DB2AG-10. If no packets are shown the sender has not sent any weather packets the latest 10 day(s).
| Time | Temp. | Humidity | Pressure | Rain* | Wind** | Luminosity | Snow |
|---|---|---|---|---|---|---|---|
| 1777636918 | 22.78° C | 35% | 1028.2 hPa | - | - | - | - |
| 1777636018 | 22.78° C | 35% | 1028.4 hPa | - | - | - | - |
| 1777635118 | 22.78° C | 35% | 1028.5 hPa | - | - | - | - |
| 1777634218 | 22.78° C | 36% | 1028.6 hPa | - | - | - | - |
| 1777633318 | 22.78° C | 35% | 1028.6 hPa | - | - | - | - |
| 1777632418 | 22.78° C | 36% | 1028.9 hPa | - | - | - | - |
| 1777631518 | 22.22° C | 36% | 1029 hPa | - | - | - | - |
| 1777630618 | 22.22° C | 36% | 1029.1 hPa | - | - | - | - |
| 1777629718 | 22.22° C | 36% | 1029.3 hPa | - | - | - | - |
| 1777628817 | 21.67° C | 37% | 1029.5 hPa | - | - | - | - |
| 1777627917 | 21.67° C | 36% | 1029.5 hPa | - | - | - | - |
| 1777627017 | 21.67° C | 37% | 1029.6 hPa | - | - | - | - |
| 1777626117 | 21.11° C | 37% | 1029.8 hPa | - | - | - | - |
| 1777625217 | 20.56° C | 38% | 1029.8 hPa | - | - | - | - |
| 1777624317 | 20° C | 39% | 1029.9 hPa | - | - | - | - |
| 1777623417 | 19.44° C | 40% | 1030 hPa | - | - | - | - |
| 1777622517 | 18.33° C | 41% | 1030.1 hPa | - | - | - | - |
| 1777621617 | 18.33° C | 40% | 1030 hPa | - | - | - | - |
| 1777620717 | 17.78° C | 40% | 1030.2 hPa | - | - | - | - |
| 1777619816 | 17.22° C | 40% | 1030.3 hPa | - | - | - | - |
| 1777618916 | 17.22° C | 39% | 1030.2 hPa | - | - | - | - |
| 1777618016 | 16.11° C | 39% | 1030.2 hPa | - | - | - | - |
| 1777617116 | 16.11° C | 39% | 1030.3 hPa | - | - | - | - |
| 1777616216 | 16.11° C | 39% | 1030.3 hPa | - | - | - | - |
| 1777615316 | 16.11° C | 39% | 1030.3 hPa | - | - | - | - |
* Rain since midnight (hover to see other rain measurements)
** Current wind speed in m/s (hover to see current wind gust speed)